CW8078 Weather Reports


time (UTC)temp
C
wind
direction
speed
KPH
gust
KPH
rain 1hr
cm
rain 24hr
cm
rain mn
cm
humidity
%
barometer
mb
20260502170303 16 355 1.6 19.3 0.00 0.00 0.00 39 1018.9
20260502164304 16 323 1.6 14.5 0.00 0.00 0.00 40 1019.1
20260502163803 15 224 0.0 1.6 0.00 0.00 0.00 43 1019.1
20260502161803 14 333 0.0 4.8 0.00 0.00 0.00 42 1019.1
20260502161304 14 324 0.0 4.8 0.00 0.00 0.00 45 1019.1
20260502160804 14 347 0.0 9.7 0.00 0.00 0.00 43 1019.1
20260502160304 14 28 0.0 19.3 0.00 0.00 0.00 42 1019.1
20260502151803 13 324 0.0 0.0 0.00 0.00 0.00 54 1019.1
20260502151303 13 344 0.0 0.0 0.00 0.00 0.00 55 1019.1
20260502150804 13 297 0.0 1.6 0.00 0.00 0.00 52 1019.1
20260502123802 7 30 0.0 0.0 0.00 0.00 0.00 88 1018.0
20260502121802 6 287 0.0 0.0 0.00 0.00 0.00 91 1017.9
20260502121302 6 287 0.0 0.0 0.00 0.00 0.00 91 1017.8
20260502120302 6 290 0.0 0.0 0.00 0.00 0.00 91 1017.6
20260502114802 6 320 0.0 0.0 0.00 0.00 0.00 91 1017.3
20260502113802 5 315 0.0 0.0 0.00 0.00 0.00 91 1017.3
20260502113303 5 315 0.0 0.0 0.00 0.00 0.00 91 1017.2
20260502111802 5 311 0.0 0.0 0.00 0.00 0.00 90 1017.2
20260502111302 5 311 0.0 0.0 0.00 0.00 0.00 91 1017.2
20260502110802 5 311 0.0 0.0 0.00 0.00 0.00 91 1017.1
20260502110302 5 311 0.0 0.0 0.00 0.00 0.00 90 1017.0
20260502104803 5 311 0.0 0.0 0.00 0.00 0.00 90 1016.9
20260502104302 5 311 0.0 0.0 0.00 0.00 0.00 90 1016.9
20260502103802 5 311 0.0 0.0 0.00 0.00 0.00 90 1016.8
20260502103302 6 309 0.0 0.0 0.00 0.00 0.00 90 1016.7
20260502101302 6 310 0.0 0.0 0.00 0.00 0.00 90 1016.6
20260502100802 6 309 0.0 0.0 0.00 0.00 0.00 90 1016.6
20260502100303 6 319 0.0 0.0 0.00 0.00 0.00 90 1016.5
20260502091302 6 0 0.0 0.0 0.00 0.00 0.00 90 1016.3
20260502090802 6 0 0.0 0.0 0.00 0.00 0.00 90 1016.3
20260502090302 6 0 0.0 0.0 0.00 0.00 0.00 90 1016.2
20260502071303 7 0 0.0 0.0 0.00 0.00 0.00 84 1015.8
20260502070802 7 355 0.0 0.0 0.00 0.00 0.00 84 1015.9
20260502070302 7 351 0.0 0.0 0.00 0.00 0.00 83 1015.8
20260502064802 7 336 0.0 1.6 0.00 0.00 0.00 83 1015.9
20260502063803 8 312 0.0 0.0 0.00 0.00 0.00 82 1016.0
20260502063303 8 15 0.0 0.0 0.00 0.00 0.00 81 1016.0
20260502061803 8 338 0.0 0.0 0.00 0.00 0.00 80 1016.0
20260502061303 8 5 0.0 0.0 0.00 0.00 0.00 81 1016.0
20260502060802 8 308 0.0 0.0 0.00 0.00 0.00 80 1016.0
20260502060302 8 16 0.0 0.0 0.00 0.00 0.00 80 1016.0
20260502054802 8 315 0.0 3.2 0.00 0.00 0.00 80 1016.0
20260502054302 8 31 0.0 0.0 0.00 0.00 0.00 80 1016.0
20260502053802 8 356 0.0 0.0 0.00 0.00 0.00 81 1016.0
20260502051803 7 283 0.0 0.0 0.00 0.00 0.00 84 1015.8
20260502051302 7 325 0.0 0.0 0.00 0.00 0.00 84 1015.8
20260502050802 7 321 0.0 0.0 0.00 0.00 0.00 84 1015.8
20260502050303 7 317 0.0 0.0 0.00 0.00 0.00 83 1015.6
20260502044803 7 350 0.0 0.0 0.00 0.00 0.00 81 1015.7
20260502044303 7 350 0.0 0.0 0.00 0.00 0.00 80 1015.6
20260502043802 8 350 0.0 0.0 0.00 0.00 0.00 81 1015.7
20260502043303 8 350 0.0 0.0 0.00 0.00 0.00 80 1015.7
20260502041803 8 350 0.0 0.0 0.00 0.00 0.00 79 1015.6
20260502041303 8 350 0.0 0.0 0.00 0.00 0.00 80 1015.7
20260502040802 8 350 0.0 0.0 0.00 0.00 0.00 79 1015.8
20260502040302 8 336 0.0 0.0 0.00 0.00 0.00 79 1015.7
20260502034803 9 287 0.0 0.0 0.00 0.00 0.00 76 1015.6
20260502033802 9 287 0.0 0.0 0.00 0.00 0.00 72 1015.6
20260502033302 10 287 0.0 0.0 0.00 0.00 0.00 72 1015.6
20260502031803 10 287 0.0 0.0 0.00 0.00 0.00 70 1015.7
20260502031302 10 287 0.0 0.0 0.00 0.00 0.00 69 1015.6
20260502030802 10 287 0.0 0.0 0.00 0.00 0.00 69 1015.6
20260502030302 10 287 0.0 0.0 0.00 0.00 0.00 69 1015.6
20260502024803 11 287 0.0 0.0 0.00 0.00 0.00 69 1015.4
20260502024302 11 287 0.0 0.0 0.00 0.00 0.00 72 1015.4
20260502023803 11 287 0.0 0.0 0.00 0.00 0.00 68 1015.4
20260502023303 11 287 0.0 0.0 0.00 0.00 0.00 68 1015.4
20260502021802 11 287 0.0 0.0 0.00 0.00 0.00 69 1015.3
20260502021302 11 278 0.0 0.0 0.00 0.00 0.00 69 1015.5
20260502020802 11 5 0.0 0.0 0.00 0.00 0.00 69 1015.3
20260502020302 11 5 0.0 0.0 0.00 0.00 0.00 70 1015.1
20260502014302 11 5 0.0 0.0 0.00 0.00 0.00 65 1014.7
20260502013803 11 5 0.0 0.0 0.00 0.00 0.00 65 1014.6
20260502013303 12 5 0.0 0.0 0.00 0.00 0.00 61 1014.6
20260502011803 12 5 0.0 0.0 0.00 0.00 0.00 57 1014.3
20260502011303 12 5 0.0 0.0 0.00 0.00 0.00 57 1014.3
20260502010303 13 5 0.0 0.0 0.00 0.00 0.00 55 1014.2
20260502004802 13 5 0.0 0.0 0.00 0.00 0.00 53 1014.2
20260502004302 14 5 0.0 0.0 0.00 0.00 0.00 52 1014.2
20260502003803 14 5 0.0 0.0 0.00 0.00 0.00 51 1014.2
20260502001802 15 5 0.0 0.0 0.00 0.03 0.00 48 1014.1
20260502001303 16 5 0.0 1.6 0.00 0.03 0.00 48 1014.0
20260502000803 16 10 0.0 1.6 0.00 0.03 0.00 47 1014.0
20260502000303 16 253 0.0 1.6 0.00 0.03 0.00 44 1014.0
20260501234802 17 201 0.0 1.6 0.00 0.08 0.00 41 1013.9
20260501234303 17 201 0.0 0.0 0.00 0.08 0.00 40 1013.9
20260501233802 16 244 0.0 3.2 0.00 0.08 0.00 42 1013.9
20260501233302 16 173 0.0 0.0 0.00 0.08 0.00 44 1013.9
20260501231802 16 179 0.0 0.0 0.00 0.08 0.00 42 1013.8
20260501230802 17 178 0.0 0.0 0.00 0.08 0.00 41 1013.7
20260501230302 17 210 0.0 3.2 0.00 0.08 0.00 43 1013.7
20260501224802 16 228 0.0 1.6 0.00 0.08 0.00 41 1013.8
20260501224303 17 232 1.6 8.0 0.00 0.08 0.00 38 1013.9
20260501223802 17 240 0.0 0.0 0.00 0.08 0.00 39 1013.9
20260501223302 17 284 0.0 3.2 0.00 0.08 0.00 39 1014.0
20260501221803 17 282 0.0 1.6 0.00 0.08 0.00 41 1014.2
20260501220802 17 295 0.0 3.2 0.00 0.08 0.00 40 1014.2
20260501220303 17 221 0.0 0.0 0.00 0.08 0.00 38 1014.3
20260501214802 16 207 0.0 0.0 0.00 0.08 0.00 42 1014.6
20260501214302 16 207 0.0 0.0 0.00 0.08 0.00 38 1014.7
20260501213803 16 207 0.0 3.2 0.00 0.08 0.00 39 1014.7
20260501213303 17 208 0.0 0.0 0.00 0.08 0.00 39 1014.7
20260501211803 17 348 0.0 4.8 0.00 0.08 0.00 36 1014.9
20260501211303 17 243 0.0 1.6 0.00 0.08 0.00 38 1015.1
20260501210803 17 222 0.0 0.0 0.00 0.08 0.00 42 1015.1
20260501204803 16 223 0.0 0.0 0.00 0.08 0.00 42 1015.6
20260501204303 16 223 0.0 0.0 0.00 0.08 0.00 41 1015.7
20260501203802 16 309 0.0 0.0 0.00 0.08 0.00 38 1015.8
20260501203302 17 223 0.0 1.6 0.00 0.08 0.00 37 1015.9
20260501194802 17 195 0.0 0.0 0.00 0.08 0.00 41 1016.3
20260501194303 16 227 0.0 0.0 0.00 0.08 0.00 42 1016.4
20260501193803 17 158 0.0 4.8 0.00 0.08 0.00 41 1016.3
20260501193302 17 192 0.0 3.2 0.00 0.08 0.00 40 1016.5
20260501191302 17 198 0.0 0.0 0.00 0.08 0.00 40 1016.5
20260501190802 17 198 0.0 0.0 0.00 0.08 0.00 37 1016.5
20260501190303 18 198 0.0 3.2 0.00 0.08 0.00 40 1016.5
20260501184303 18 7 0.0 1.6 0.00 0.08 0.00 38 1016.6
20260501183802 18 223 0.0 4.8 0.00 0.08 0.00 41 1016.6
20260501183303 17 237 0.0 0.0 0.00 0.08 0.00 37 1016.5
20260501181802 18 160 0.0 0.0 0.00 0.08 0.00 39 1016.6
20260501181302 17 227 0.0 4.8 0.00 0.08 0.00 42 1016.6
20260501180802 17 313 0.0 3.2 0.00 0.08 0.00 36 1016.6
20260501180302 17 266 0.0 1.6 0.00 0.08 0.00 39 1016.6
20260501174803 17 237 0.0 0.0 0.00 0.08 0.00 43 1016.8
20260501174302 17 161 0.0 3.2 0.00 0.08 0.00 40 1016.8
20260501173803 17 245 0.0 0.0 0.00 0.08 0.00 42 1016.9
20260501173303 16 316 0.0 4.8 0.00 0.08 0.00 42 1017.0